Simultaneous Nadir Overpasses (SNOs) Predictions

Prediction of SNOs between NOAA-19 and TERRA Satellite Orbit:

Table of predicted SNOs for the next 14.0 days since TLE Epoch: 10/24/2020
Index Date (NOAA-19) Time (NOAA-19) Lat,Lon (NOAA-19) SZA (NOAA-19 ) Date (TERRA) Time (TERRA) Lat,Lon (TERRA) SZA (TERRA ) Distance(km) Time Diff (sec)
1 10/25/2020 09:15:54 79.82, 71.21 93.80 10/25/2020 09:16:00 79.79, 71.31 93.78 3.61 6
2 10/27/2020 14:49:10 -79.82, 167.97 85.44 10/27/2020 14:49:43 -79.82, 168.11 85.41 2.79 33
3 10/27/2020 15:40:08 79.80, -24.57 94.58 10/27/2020 15:39:10 79.78, -24.54 94.54 2.13 58
4 10/29/2020 20:22:23 79.82, -95.31 95.31 10/29/2020 20:23:26 79.81, -95.42 95.31 2.77 63
5 10/29/2020 21:13:24 -79.79, 72.35 84.67 10/29/2020 21:12:53 -79.81, 72.27 84.68 3.34 31
6 11/01/2020 02:46:37 79.81, 168.89 96.05 11/01/2020 02:46:35 79.83, 168.98 96.08 3.10 2
7 11/03/2020 08:19:55 -79.82, -94.48 83.25 11/03/2020 08:20:19 -79.83, -94.50 83.24 0.64 24
8 11/03/2020 09:10:51 79.79, 73.08 96.78 11/03/2020 09:09:45 79.82, 73.09 96.77 2.56 66
9 11/05/2020 13:53:07 79.85, 2.02 97.43 11/05/2020 13:54:01 79.84, 2.16 97.46 2.98 54
